IRIDIUM 33 DEB, 33881

Orbit data source: Space-Track

IRIDIUM 33 DEB, 33881 is space debris in LEO originally from a launch on Sun, 14 Sep 1997 UTC launched from the Tyuratam Missile And Space Complex (TTMTR). The debris from Iridium 33, an American commercial communications satellite, has been tracked extensively since its accidental collision with the defunct Russian satellite Cosmos 2251 in 2009. This event, occurring at high speed in low Earth orbit (LEO), generated thousands of pieces of space debris, significantly increasing the risk of further collisions. The Iridium 33 debris cloud has impacted space traffic management and orbital debris mitigation strategies, making it a subject of ongoing study in space situational awareness.

Loading next visibility...
Identifier
33881, 1997-051BA
Orbit
LEO
Country
Flag of USUS
Related business
Manufacturer
Unknown
Mission
Spacecraft
Bus & Motor
Unknown
Mass
Unknown
Launch date (UTC)
1997-09-14 (29 years ago)
Launch vehicle
Unknown
Launch site
Tyuratam Missile And Space Complex (TTMTR)
Object type
Payload
Rocket body
Debris
Shape & HBR
Unknown shape, 0.1 m
Radar Cross Section
Medium (>0.1 m² and <1 m²)

Expand to show TLE details & history
Last TLE update: 14 hours ago

TLE from 14 hours ago
0 IRIDIUM 33 DEB
1 33881U 97051BA  26266.18724353  .00004551  00000-0  85648-3 0  9999
2 33881  86.3873 342.2841 0051768 287.0219  94.2284 14.63545669916521
Epoch: 2026-09-23T04:29Z
TLE epoch observation values (Epoch: 2026-09-23T04:29:37.840Z)
Latitude
21.80744°
Longitude
-85.72574°
Altitude
687.466 km
Speed
7.513 km/s
True Right ascension
22h 54m 53s
True Declination
21° 41' 17"
Sunlit
Object was in full shadow at epoch
Visualization orbit readout
Latitude
Unknown
Longitude
Unknown
Altitude
Unknown
Speed
Unknown
Apparent Right ascension
Unknown
Apparent Declination
Unknown
Sunlit
N/A
Visualization observer readout
Local Sidereal Time
11:39:04
Azimuth
Unknown
Elevation
Unknown
Doppler factor
Unknown
Orbital elements
Apogee altitude
715.203 km
Perigee altitude
642.14 km
Semi-major axis
7,056.809 km
Eccentricity
0.00518
Inclination
86.3873°
RAAN
342.2841°
Arg. of periapsis
287.0219°
True anomaly
94.81971°
Mean anomaly
94.2284°
Eccentric anomaly
94.52408°
Mean motion
3.66126 °/min
Orbital period
98.33 mins
BSTAR
0.00085648
Loading maneuver chart data...
Computing Atmospheric mass density...

Documentation

Showing up to 5 results
|